Zurück zum Katalog

STARLINK-3229

AktivKommunikationVLEO
NORAD 49751·PAYLOAD·🇺🇸 United States

Gestartet Dec 2, 2021 von Cape Canaveral Space Force Station

Loading…

Nächste Überflüge (nächste 24 Stunden)

TLE

AktuellSource: CelesTrak SupGP

Epoche: Sep 14, 2026, 13:40 UTC

1 49751C 21115AD  26257.56993056 -.00064553  00000+0 -19090-2 0  2573
2 49751  53.1601  15.7891 0001313  85.5127 240.4584 15.34393812    18

Verfolge STARLINK-3229 in Echtzeit mit AllMySat

Download on the App Store